sat.trackr.live / text

‹ back to catalog

STARLINK-6077

NORAD 56097 · 2023-046E

PAYLOAD ACTIVE UNKNOWN

§ Identity

Operator
Country
US
Launch date
2023-03-29
Launch site
AFETR
Launch vehicle
Mass (kg)
RCS (m²)

Purposes: comms

External: N2YO · Heavens-Above · Gunter

§ Orbital elements

Epoch: 2026-09-20T22:06:39.528576Z

Period
94.27 min
Inclination
43.0067°
Eccentricity
0.0002257
Mean motion
15.27579072 rev/d
Perigee alt
481.5 km
Apogee alt
484.6 km
Semi-major
6,861.2 km
B*
1.6525e-5
RAAN
91.7152°
Arg perigee
265.0897°
Mean anomaly
94.9697°
Rev number
19,243

§ Raw data

STARLINK-60771 56097U 23046E   26263.92129084  .00000192  00000+0  16525-4 0  99902 56097  43.0067  91.7152 0002257 265.0897  94.9697 15.27579072192435

JSON: /api/v1/satellites/56097 · /tle

For live sub-satellite position, see the globe view (requires WebGL).

§ Visibility from observer

Set your observer location to see the next 7 days of passes ≥ 10°. The values pass through the URL so the page stays shareable.

No JS? Fill the form by hand. The geolocation button needs JavaScript.